CW3847 La Orotava ES current weather conditions

sailwx.info

Wind from 029 at 0 knots gusting 1

Air temperature 18.9° C
Dewpoint 17.4° C

Last reported at 2015-Jul-02 20:47 UTC.
Time now 2015-Jul-02 21:34 UTC

Location: N 28°23' W 016°31'.
View on Google Maps.

See reports from other nearby stations

  
Tides and Currents Weather Stations Pressure Air Temp Water Temp Dewpoint Dewpoint Depression Visibility Wind Speed Wind Dir Waves Ship Positions
date/time (UTC)wind fromknots sea level pressurealtimeterstation pressurevisibilityair tempwater tempwave heightnotes
2015-Jul-02 20:47 029 0 gusting 1 18.9
2015-Jul-02 20:17 005 2 gusting 3 19.4
2015-Jul-02 19:47 355 2 gusting 2 19.4
2015-Jul-02 19:37 022 2 gusting 2 19.4
2015-Jul-02 19:17 360 2 gusting 4 19.4
2015-Jul-02 18:47 014 3 gusting 6 19.4
2015-Jul-02 18:37 342 3 gusting 6 19.4
2015-Jul-02 18:27 043 3 gusting 6 20.0
2015-Jul-02 18:17 355 2 gusting 7 20.0
2015-Jul-02 18:07 015 3 gusting 6 20.0
2015-Jul-02 17:27 005 7 gusting 8 20.0
2015-Jul-02 17:17 330 3 gusting 6 20.0
2015-Jul-02 16:57 062 4 gusting 8 20.0
2015-Jul-02 16:37 355 1 gusting 6 20.0
2015-Jul-02 16:27 355 6 gusting 6 20.0
2015-Jul-02 16:17 013 1 gusting 6 20.0
2015-Jul-02 16:07 011 2 gusting 7 20.0
2015-Jul-02 15:57 013 6 gusting 8 20.0
2015-Jul-02 15:47 355 7 gusting 7 20.6
2015-Jul-02 15:37 360 6 gusting 6 20.6
2015-Jul-02 15:27 031 3 gusting 6 20.6
2015-Jul-02 15:07 005 4 gusting 4 20.6
2015-Jul-02 14:57 355 7 gusting 8 20.6
2015-Jul-02 14:37 016 5 gusting 6 20.6
2015-Jul-02 14:07 023 2 gusting 7 20.6
2015-Jul-02 13:57 360 6 gusting 6 20.6
2015-Jul-02 13:47 355 3 gusting 6 20.6
2015-Jul-02 13:27 355 7 gusting 7 20.6
2015-Jul-02 13:17 030 4 gusting 5 20.6
2015-Jul-02 12:57 015 3 gusting 7 21.1
2015-Jul-02 12:47 016 5 gusting 6 21.1
2015-Jul-02 12:37 343 2 gusting 7 21.1
2015-Jul-02 12:17 005 3 gusting 6 21.1
2015-Jul-02 12:07 029 4 gusting 6 21.1
2015-Jul-02 11:47 355 3 gusting 3 21.1
2015-Jul-02 11:37 018 1 gusting 4 21.1
2015-Jul-02 11:07 338 3 gusting 4 20.0
2015-Jul-02 10:57 015 2 gusting 4 20.0
2015-Jul-02 10:47 022 2 gusting 6 20.0
2015-Jul-02 10:37 015 2 gusting 4 20.0
2015-Jul-02 10:27 344 4 gusting 6 20.0
2015-Jul-02 10:17 028 2 gusting 5 20.0
2015-Jul-02 09:57 014 1 gusting 2 20.0
2015-Jul-02 09:47 011 1 gusting 6 20.0
2015-Jul-02 09:37 044 2 gusting 5 20.0
2015-Jul-02 09:27 074 1 gusting 2 19.4
2015-Jul-02 09:17 019 3 gusting 5 19.4
2015-Jul-02 09:07 360 2 gusting 3 19.4
2015-Jul-02 08:57 019 6 gusting 6 19.4
2015-Jul-02 08:47 035 2 gusting 4 20.0
2015-Jul-02 08:27 335 4 gusting 6 19.4
2015-Jul-02 08:17 192 0 gusting 1 19.4
2015-Jul-02 07:37 161 1 gusting 2 19.4
2015-Jul-02 07:27 161 0 gusting 1 19.4
2015-Jul-02 07:07 200 19.4
2015-Jul-02 06:47 320 0 gusting 1 19.4
2015-Jul-02 06:37 320 19.4
2015-Jul-02 06:17 320 0 gusting 2 19.4
2015-Jul-02 05:57 005 0 gusting 1 19.4
2015-Jul-02 05:47 013 1 gusting 2 19.4
2015-Jul-02 05:37 022 2 gusting 2 19.4
2015-Jul-02 05:27 189 19.4
2015-Jul-02 05:17 189 19.4
2015-Jul-02 05:07 189 19.4
2015-Jul-02 04:57 189 18.9
2015-Jul-02 04:47 189 18.9
2015-Jul-02 04:37 191 2 gusting 2 18.9
2015-Jul-02 04:17 190 18.9
2015-Jul-02 03:47 270 2 gusting 2 18.9
2015-Jul-02 03:37 342 0 gusting 0 19.4
2015-Jul-02 03:17 171 1 gusting 2 18.9
2015-Jul-02 03:07 171 1 gusting 2 18.9
2015-Jul-02 02:57 161 1 gusting 2 18.9
2015-Jul-02 02:47 171 1 gusting 1 18.9
2015-Jul-02 02:37 145 0 gusting 2 19.4
2015-Jul-02 02:27 179 19.4
2015-Jul-02 02:17 177 0 gusting 1 19.4
2015-Jul-02 02:07 290 19.4
2015-Jul-02 01:57 290 0 gusting 0 19.4
2015-Jul-02 01:27 168 19.4
2015-Jul-02 01:07 179 2 gusting 4 19.4
2015-Jul-02 00:57 223 2 gusting 3 20.0
2015-Jul-02 00:37 311 2 gusting 3 20.0
2015-Jul-02 00:17 173 0 gusting 1 19.4
2015-Jul-01 23:57 163 1 gusting 2 19.4
2015-Jul-01 23:47 205 1 gusting 2 19.4
2015-Jul-01 23:37 261 0 gusting 1 19.4
2015-Jul-01 23:27 261 20.0
2015-Jul-01 23:17 261 20.0
2015-Jul-01 23:07 261 1 gusting 2 20.0
2015-Jul-01 22:57 257 0 gusting 1 20.0
2015-Jul-01 22:37 223 1 gusting 1 20.0
2015-Jul-01 22:27 223 1 gusting 1 20.0
2015-Jul-01 22:07 233 0 gusting 2 19.4
2015-Jul-01 21:47 306 1 gusting 2 20.0
2015-Jul-01 21:37 301 20.0
2015-Jul-01 21:17 311 2 gusting 2 20.0
2015-Jul-01 21:07 298 1 gusting 1 20.0
2015-Jul-01 20:47 300 2 gusting 2 20.6
2015-Jul-01 20:27 314 2 gusting 2 20.6
2015-Jul-01 19:57 296 2 gusting 2 21.7
2015-Jul-01 19:47 294 2 gusting 2 21.7
2015-Jul-01 19:27 346 2 gusting 2 22.2
2015-Jul-01 19:17 360 3 gusting 3 22.2
2015-Jul-01 18:57 327 1 gusting 4 22.2
2015-Jul-01 18:47 336 4 gusting 6 22.8
2015-Jul-01 18:37 014 3 gusting 6 22.8
2015-Jul-01 18:17 027 3 gusting 7 23.3
2015-Jul-01 17:47 027 2 gusting 6 23.9
2015-Jul-01 17:37 340 4 gusting 7 23.9
2015-Jul-01 17:17 028 2 gusting 3 23.3
2015-Jul-01 17:07 019 2 gusting 6 23.9
2015-Jul-01 16:57 066 2 gusting 3 23.3
2015-Jul-01 16:47 030 2 gusting 5 23.3
2015-Jul-01 16:37 321 2 gusting 2 23.3
2015-Jul-01 16:27 014 2 gusting 5 23.3
2015-Jul-01 16:17 027 1 gusting 6 23.3
2015-Jul-01 15:37 360 7 gusting 7 23.3
2015-Jul-01 15:27 344 6 gusting 8 23.3
2015-Jul-01 15:17 355 2 gusting 4 23.3
2015-Jul-01 14:57 032 3 gusting 7 23.3
2015-Jul-01 14:37 014 6 gusting 7 23.3
2015-Jul-01 14:27 066 0 gusting 6 22.8
2015-Jul-01 14:07 037 2 gusting 6 22.2
2015-Jul-01 13:57 327 4 gusting 6 21.7
2015-Jul-01 13:27 336 7 gusting 8 22.2
2015-Jul-01 13:17 340 3 gusting 7 22.2
2015-Jul-01 13:07 045 7 gusting 7 22.2
2015-Jul-01 12:37 338 6 gusting 6 22.2
2015-Jul-01 12:17 005 4 gusting 6 21.7
2015-Jul-01 11:57 009 2 gusting 5 21.1
2015-Jul-01 11:27 331 6 gusting 7 21.1
2015-Jul-01 11:17 351 4 gusting 6 21.1
2015-Jul-01 10:57 043 2 gusting 7 21.1
2015-Jul-01 10:17 028 3 gusting 6 20.0
2015-Jul-01 09:57 344 2 gusting 4 20.0
2015-Jul-01 09:47 355 3 gusting 4 20.0
2015-Jul-01 09:37 330 4 gusting 4 19.4
2015-Jul-01 09:27 046 1 gusting 2 19.4
2015-Jul-01 09:17 012 2 gusting 6 18.9
2015-Jul-01 09:07 078 2 gusting 2 18.9
2015-Jul-01 08:57 344 4 gusting 4 18.9
2015-Jul-01 08:47 344 3 gusting 4 19.4
2015-Jul-01 08:37 044 0 gusting 2 19.4
2015-Jul-01 08:27 076 1 gusting 2 19.4
2015-Jul-01 07:57 308 0 gusting 1 18.9
2015-Jul-01 07:47 155 0 gusting 1 18.3
2015-Jul-01 07:17 181 0 gusting 0 17.2
2015-Jul-01 07:07 184 0 gusting 1 17.2
2015-Jul-01 06:57 140 0 gusting 1 17.2
2015-Jul-01 06:47 144 1 gusting 2 17.2
2015-Jul-01 06:27 147 1 gusting 2 17.2
2015-Jul-01 06:07 327 17.2
2015-Jul-01 05:47 123 17.2
2015-Jul-01 05:37 134 17.2
2015-Jul-01 05:27 134 17.2
2015-Jul-01 05:17 159 17.2
2015-Jul-01 04:47 167 0 gusting 0 17.2
2015-Jul-01 04:37 167 0 gusting 2 17.2
2015-Jul-01 04:17 175 2 gusting 4 17.2
2015-Jul-01 04:07 175 17.2
2015-Jul-01 03:57 175 1 gusting 2 17.2
2015-Jul-01 03:47 175 17.2
2015-Jul-01 03:27 173 1 gusting 1 17.2
2015-Jul-01 03:17 173 17.2
2015-Jul-01 03:07 182 2 gusting 3 17.2
2015-Jul-01 02:57 169 0 gusting 2 17.2
2015-Jul-01 02:47 175 0 gusting 1 17.2
2015-Jul-01 02:37 175 0 gusting 2 17.2
2015-Jul-01 02:27 184 0 gusting 2 17.8
2015-Jul-01 02:17 194 0 gusting 1 17.8
2015-Jul-01 02:07 246 2 gusting 2 17.8
2015-Jul-01 01:57 223 17.8
2015-Jul-01 01:47 223 1 gusting 1 17.8
2015-Jul-01 01:27 309 2 gusting 2 18.3
2015-Jul-01 01:07 305 18.3
2015-Jul-01 00:57 334 18.3
2015-Jul-01 00:47 355 0 gusting 1 18.3
2015-Jul-01 00:37 020 18.3
2015-Jul-01 00:27 020 0 gusting 1 18.3
2015-Jul-01 00:07 119 2 gusting 2 18.3
2015-Jun-30 23:57 082 1 gusting 1 18.3
2015-Jun-30 23:47 082 18.9
2015-Jun-30 23:37 068 2 gusting 5 18.9
2015-Jun-30 23:07 029 2 gusting 2 18.9
2015-Jun-30 22:57 018 2 gusting 2 18.9
2015-Jun-30 22:47 322 2 gusting 2 18.9
2015-Jun-30 22:37 355 1 gusting 2 18.9
2015-Jun-30 22:27 015 2 gusting 3 18.9
2015-Jun-30 22:17 355 3 gusting 3 18.9
2015-Jun-30 21:57 034 2 gusting 3 18.9
2015-Jun-30 21:47 351 2 gusting 3 18.9
2015-Jun-30 21:07 344 1 gusting 1 19.4